Three Valleys, France 16 day weather forecast

Slopes altitude range 1260 m - 3230m

Number of lifts: 174 Pistes: 600km

In some cases the lift and piste totals shown are for the ski domain (e.g. Three Valleys) rather than individual resort (e.g. Courchevel)

Overview

The 16 day weather forecast is fully updated 4 times every day.

    • Sun 16 JUN 2019
    • Sun 16
    • 9C 17C
    • Mon 17 JUN 2019
    • Mon 17
    • 14C 21C
    • Tue 18 JUN 2019
    • Tue 18
    • 14C 19C
    • Wed 19 JUN 2019
    • Wed 19
    • 15C 24C
    • Thu 20 JUN 2019
    • Thu 20
    • 14C 18C
    • Fri 21 JUN 2019
    • Fri 21
    • 12C 17C
    • Sat 22 JUN 2019
    • Sat 22
    • 11C 18C
    • Sun 23 JUN 2019
    • Sun 23
    • 12C 20C
    • Mon 24 JUN 2019
    • Mon 24
    • 13C 20C
    • Tue 25 JUN 2019
    • Tue 25
    • 16C 23C
    • Wed 26 JUN 2019
    • Wed 26
    • 4C 6C
    • Thu 27 JUN 2019
    • Thu 27
    • 5C 6C
    • Fri 28 JUN 2019
    • Fri 28
    • 10C 13C
    • Sat 29 JUN 2019
    • Sat 29
    • 12C 17C
    • Sun 30 JUN 2019
    • Sun 30
    • 12C 17C
    • Mon 01 JUL 2019
    • Mon 01
    • 11C 16C

Date:

Time Type 0°C level Temp Chill Snow Cloud Speed Gust Dir Press
12:00 3636m 17°C 17_6 0cm 40% 6mph 5mph 1018mB
15:00 3731m 18°C 18_5 0cm 0% 5mph 5mph 1017mB
18:00 3835m 18°C 18_4 0cm 3% 4mph 5mph 1017mB
21:00 3970m 9°C 9_2 0cm 0% 2mph 2mph 1019mB
0:00 3870m 9°C 9_3 0cm 6% 3mph 3mph 1019mB
3:00 3871m 8°C 8_3 0cm 20% 3mph 4mph 1018mB
6:00 3810m 8°C 8_1 0cm 10% 1mph 2mph 1018mB
9:00 3725m 14°C 14_4 0cm 0% 4mph 3mph 1018mB
12:00 3788m 21°C 21_6 0cm 1% 6mph 4mph 1017mB
15:00 3787m 21°C 21_4 0cm 71% 4mph 5mph 1015mB
18:00 3714m 21°C 21_1 0cm 86% 1mph 2mph 1016mB
21:00 3807m 11°C 11_3 0cm 88% 3mph 3mph 1017mB
0:00 3738m 10°C 10_3 0cm 78% 3mph 4mph 1017mB
3:00 3702m 10°C 10_4 0cm 39% 4mph 4mph 1017mB
6:00 3726m 10°C 10_2 0cm 20% 2mph 2mph 1017mB
9:00 3734m 14°C 14_3 0cm 78% 3mph 3mph 1016mB
12:00 3758m 19°C 19_3 0cm 89% 3mph 4mph 1015mB
15:00 3725m 20°C 20_1 0cm 34% 1mph 3mph 1014mB
18:00 3714m 20°C 20_1 0cm 17% 1mph 2mph 1014mB
21:00 3668m 11°C 11_4 0cm 0% 4mph 4mph 1016mB
0:00 3812m 11°C 11_5 0cm 0% 5mph 5mph 1015mB
3:00 3717m 11°C 11_5 0cm 93% 5mph 5mph 1014mB
6:00 3700m 10°C 10_4 0cm 54% 4mph 4mph 1014mB
9:00 3707m 15°C 15_2 0cm 1% 2mph 4mph 1013mB
12:00 3643m 24°C 24_5 0cm 17% 5mph 7mph 1012mB
15:00 3689m 23°C 23_3 0cm 85% 3mph 6mph 1011mB
18:00 3692m 23°C 23_4 0cm 75% 4mph 4mph 1012mB
21:00 3747m 12°C 12_2 0cm 100% 2mph 2mph 1014mB
0:00 3751m 11°C 11_2 0cm 100% 2mph 3mph 1014mB
3:00 3717m 10°C 10_2 0cm 99% 2mph 2mph 1014mB
6:00 3652m 10°C 10_2 0cm 94% 2mph 2mph 1014mB
9:00 3565m 14°C 14_5 0cm 33% 5mph 5mph 1013mB
12:00 3553m 18°C 18_5 0cm 50% 5mph 5mph 1013mB
15:00 3592m 16°C 16_4 0cm 100% 4mph 4mph 1012mB
18:00 3515m 16°C 16_2 0cm 100% 2mph 3mph 1013mB
21:00 3463m 10°C 10_2 0cm 44% 2mph 2mph 1015mB
0:00 3480m 9°C 9_3 0cm 21% 3mph 4mph 1015mB
3:00 3440m 8°C 8_2 0cm 23% 2mph 2mph 1015mB
6:00 3413m 8°C 8_0 0cm 37% 0mph 0mph 1016mB
9:00 3507m 12°C 12_4 0cm 66% 4mph 4mph 1015mB
12:00 3494m 17°C 17_5 0cm 68% 5mph 5mph 1015mB
15:00 3617m 16°C 16_4 0cm 82% 4mph 4mph 1014mB
18:00 3545m 16°C 16_4 0cm 85% 4mph 4mph 1015mB
21:00 3454m 11°C 11_2 0cm 100% 2mph 3mph 1017mB
0:00 3485m 11°C 11_3 0cm 100% 3mph 3mph 1016mB
3:00 3424m 10°C 10_2 0cm 100% 2mph 2mph 1016mB
6:00 3357m 10°C 10_1 0cm 100% 1mph 0mph 1016mB
9:00 3402m 11°C 11_3 0cm 100% 3mph 2mph 1016mB
12:00 3497m 18°C 18_5 0cm 93% 5mph 4mph 1015mB
15:00 3530m 17°C 17_4 0cm 25% 4mph 4mph 1014mB
18:00 3490m 17°C 17_3 0cm 20% 3mph 3mph 1014mB
21:00 3391m 10°C 10_3 0cm 26% 3mph 4mph 1016mB
0:00 3253m 9°C 9_3 0cm 63% 3mph 4mph 1016mB
3:00 3223m 9°C 9_3 0cm 100% 3mph 3mph 1016mB
6:00 3397m 8°C 8_2 0cm 56% 2mph 2mph 1017mB
9:00 3431m 12°C 12_3 0cm 99% 3mph 3mph 1016mB
12:00 3631m 20°C 20_5 0cm 91% 5mph 5mph 1015mB
15:00 3597m 20°C 20_5 0cm 95% 5mph 5mph 1015mB
18:00 3639m 20°C 20_3 0cm 71% 3mph 3mph 1016mB
21:00 3814m 7°C 7_2 0cm 23% 2mph 3mph 1018mB
0:00 4082m 7°C 7_5 0cm 53% 5mph 6mph 1018mB
3:00 4184m 7°C 7_5 0cm 61% 5mph 6mph 1018mB
6:00 4311m 7°C 7_4 0cm 61% 4mph 4mph 1018mB
9:00 4413m 13°C 13_3 0cm 57% 3mph 5mph 1017mB
12:00 4464m 20°C 20_5 0cm 78% 5mph 7mph 1016mB
15:00 4419m 20°C 20_5 0cm 0% 5mph 5mph 1015mB
18:00 4448m 20°C 20_3 0cm 0% 3mph 4mph 1016mB
21:00 4504m 11°C 11_6 0cm 0% 6mph 7mph 1018mB
0:00 4490m 11°C 11_5 0cm 0% 5mph 6mph 1019mB
3:00 4426m 10°C 10_5 0cm 0% 5mph 6mph 1018mB
6:00 4419m 10°C 10_5 0cm 0% 5mph 6mph 1017mB
9:00 4410m 16°C 16_3 0cm 0% 3mph 6mph 1017mB
12:00 4307m 23°C 23_6 0cm 0% 6mph 10mph 1016mB
15:00 4304m 23°C 23_6 0cm 0% 6mph 13mph 1015mB
18:00 4377m 23°C 23_4 0cm 18% 4mph 5mph 1016mB
21:00 4285m 10°C 10_3 0cm 74% 3mph 4mph 1018mB
0:00 4150m 9°C 9_2 0cm 66% 2mph 3mph 1018mB
3:00 4007m 10°C 10_4 0cm 100% 4mph 4mph 1018mB
6:00 3793m 9°C 9_5 0cm 100% 5mph 5mph 1017mB
Afternoon 0.25mm 0.6875 2564m 6°C 6_5 0cm 98% 5mph 5mph 1017mB
Morning 0.166667mm 0.5 2300m 1°C 1_5 4cm 95% 5mph 5mph 1017mB
Afternoon 0.0833333mm 0.25 2519m 6°C 6_6 2cm 86% 6mph 7mph 1018mB
Morning 0mm 0 3344m -1°C -1_4 0cm 22% 4mph 5mph 1021mB
Afternoon 0mm 0 3883m 13°C 13_5 0cm 12% 5mph 5mph 1018mB
Morning 0mm 0 3892m 3°C 3_2 0cm 0% 2mph 2mph 1018mB
Afternoon 0mm 0 3906m 17°C 17_5 0cm 64% 5mph 5mph 1014mB
Morning 0mm 0 4151m 3°C 3_1 0cm 0% 1mph 1mph 1013mB
Afternoon 0mm 0 4159m 17°C 17_5 0cm 34% 5mph 4mph 1010mB
Morning 0mm 0 3883m 5°C 5_1 0cm 8% 1mph 1mph 1010mB
Afternoon 0.354167mm 1.0625 3638m 16°C 16_5 0cm 77% 5mph 5mph 1010mB
Morning 0.0833333mm 0.25 3515m 6°C 6_4 0cm 92% 4mph 4mph 1013mB

16 day outlook at a glance

Forecast issued: 6/16/2019 2:34:00 PM

Chat

Your comments and questions. In a resort? Let us know what it's like!


Characters left 250

For terms and conditions see Readers Comments on the Cookie and privacy policy page.